• Join FlightAware (Why Join?)
  • Login
  • US Flag 
10:20AM EDT


 

Airport Tracker/Info


-or-


 

Live Flight TrackerFlight Track Log ✈ SKW2901 ✈ 25-Apr-2013 ✈ KSLC - KPHX

Flight Track Log - Related Links

Times and Time Zones

All times are in EDT time to prevent confusion due to time zone crossing. See the SKW2901 flight status page for this flight to view local times or setup timezone preferences in your user account.

Time Position Orientation Groundspeed Altitude Reporting Facility
EDT Latitude Longitude Course Direction KTS MPH feet Rate Location/Type
10:38AM 40.7692 -111.9978 168° South 163 188 5,200  Level Salt Lake Center
10:38AM 40.7511 -111.9928 168° South 166 191 5,800 1,560 Climbing Salt Lake Center
10:39AM 40.6828 -111.9847 175° South 243 280 7,600 2,220 Climbing Salt Lake Center
10:40AM 40.5989 -111.9708 173° South 271 312 10,400 2,340 Climbing Salt Lake Center
10:41AM 40.5211 -111.9600 174° South 280 322 12,700 2,040 Climbing Salt Lake Center
10:42AM 40.4353 -111.9500 175° South 307 353 14,700 2,100 Climbing Salt Lake Center
10:43AM 40.3483 -111.9436 177° South 311 358 17,100 1,920 Climbing Salt Lake Center
10:44AM 40.2608 -111.9397 178° South 315 362 18,700 1,620 Climbing Salt Lake Center
10:45AM 40.1733 -111.9556 188° South 317 365 20,500 1,620 Climbing Salt Lake Center
10:46AM 40.0628 -111.9706 186° South 333 383 22,100 1,500 Climbing Salt Lake Center
10:48AM 39.9708 -111.9836 186° South 334 384 23,600 1,260 Climbing Salt Lake Center
10:49AM 39.8610 -111.9902 183° South  Level FlightAware Approximate
10:49AM 39.8758 -111.9989 183° South 343 395 24,800  Level Salt Lake Center
10:50AM 39.7819 -112.0119 186° South 340 391 25,900 1,020 Climbing Salt Lake Center
10:51AM 39.6839 -112.0269 187° South 348 400 26,900 840 Climbing Salt Lake Center
10:52AM 39.5844 -112.0408 186° South 356 410 27,700 780 Climbing Salt Lake Center
10:53AM 39.4825 -112.0558 186° South 365 420 28,600 780 Climbing Salt Lake Center
10:54AM 39.3786 -112.0714 187° South 373 429 29,400 660 Climbing Salt Lake Center
10:55AM 39.2544 -112.0892 186° South 375 432 30,000 480 Climbing Salt Lake Center
10:56AM 39.1619 -112.1025 186° South 381 438 30,500 540 Climbing Salt Lake Center
10:57AM 39.0342 -112.1200 186° South 383 441 31,200 480 Climbing Salt Lake Center
10:58AM 38.9261 -112.1350 186° South 388 447 31,600 420 Climbing Salt Lake Center
10:59AM 38.8178 -112.1511 187° South 391 450 32,100 420 Climbing Salt Lake Center
11:00AM 38.7094 -112.1661 186° South 391 450 32,500 420 Climbing Salt Lake Center
11:01AM 38.5997 -112.1814 186° South 395 455 33,000 240 Climbing Salt Lake Center
11:02AM 38.4894 -112.1967 186° South 397 457 33,000  Level Salt Lake Center
11:03AM 38.3769 -112.2125 186° South 404 465 33,000  Level Salt Lake Center
11:04AM 38.2419 -112.2303 186° South 404 465 33,000  Level Salt Lake Center
11:05AM 38.1294 -112.2444 186° South 405 466 33,000  Level Salt Lake Center
11:06AM 38.0181 -112.2594 186° South 404 465 33,000  Level Salt Lake Center
11:07AM 37.9086 -112.2739 186° South 398 458 33,000  Level Salt Lake Center
11:08AM 37.7986 -112.2892 186° South 396 456 33,000  Level Salt Lake Center
11:09AM 37.6892 -112.3039 186° South 394 453 33,000  Level Salt Lake Center
11:10AM 37.5794 -112.3117 183° South 392 451 33,000  Level Salt Lake Center
11:11AM 37.4483 -112.3183 182° South 391 450 33,000  Level Salt Lake Center
11:12AM 37.3400 -112.3253 183° South 389 448 33,000  Level Salt Lake Center
11:13AM 37.3183 -112.3264 182° South 386 444 33,000  Level Los Angeles Center
11:14AM 37.2103 -112.3339 183° South 386 444 33,000  Level Los Angeles Center
11:15AM 37.1025 -112.3394 182° South 386 444 33,000  Level Los Angeles Center
11:16AM 36.9717 -112.3472 183° South 391 450 33,000  Level Los Angeles Center
11:17AM 36.8628 -112.3542 183° South 391 450 33,000  Level Los Angeles Center
11:18AM 36.7567 -112.3614 183° South 384 442 33,000  Level Los Angeles Center
11:19AM 36.6489 -112.3667 182° South 386 444 33,000  Level Los Angeles Center
11:20AM 36.5417 -112.3744 183° South 385 443 33,000  Level Los Angeles Center
11:21AM 36.4344 -112.3800 182° South 385 443 33,000 -120 Level Los Angeles Center
11:22AM 36.3061 -112.3878 183° South 385 443 32,800 -480 Descending Los Angeles Center
11:23AM 36.1958 -112.3942 183° South 394 453 32,100 -720 Descending Los Angeles Center
11:24AM 36.0856 -112.4006 183° South 397 457 31,400 -720 Descending Los Angeles Center
11:25AM 35.9778 -112.4056 182° South 389 448 30,700 -720 Descending Los Angeles Center
11:26AM 35.8797 -112.4100 182° South 378 435 30,000 -780 Descending Los Angeles Center
11:27AM 35.7572 -112.4156 182° South 368 423 29,200 -540 Descending Los Angeles Center
11:28AM 35.6575 -112.4206 182° South 360 414 29,000 -120 Descending Los Angeles Center
11:29AM 35.5625 -112.4250 182° South 343 395 29,000  Level Los Angeles Center
11:30AM 35.4711 -112.4353 185° South 332 382 29,000  Level Los Angeles Center
11:31AM 35.3781 -112.4353 180° South 334 384 29,000  Level Los Angeles Center
11:32AM 35.3036 -112.4169 169° South 337 388 29,000  Level Albuquerque Center
11:33AM 35.2064 -112.3975 171° South 349 402 29,000 -180 Level Albuquerque Center
11:34AM 35.1047 -112.3756 170° South 365 420 28,700 -780 Descending Albuquerque Center
11:35AM 34.9994 -112.3525 170° South 379 436 27,500 -1,320 Descending Albuquerque Center
11:36AM 34.8819 -112.3283 170° South 363 418 26,000 -1,440 Descending Albuquerque Center
11:37AM 34.7889 -112.3072 169° South 346 398 24,600 -1,380 Descending Albuquerque Center
11:38AM 34.7017 -112.2878 170° South 341 392 23,200 -1,440 Descending Albuquerque Center
11:39AM 34.6075 -112.2672 170° South 343 395 21,700 -1,620 Descending Albuquerque Center
11:40AM 34.5000 -112.2442 170° South 332 382 19,900 -1,440 Descending Albuquerque Center
11:41AM 34.4164 -112.2242 169° South 315 362 18,800 -1,020 Descending Albuquerque Center
11:42AM 34.3328 -112.2008 167° South 311 358 17,800 -1,020 Descending Albuquerque Center
11:43AM 34.2517 -112.1806 168° South 305 351 16,700 -1,320 Descending Albuquerque Center
11:44AM 34.1758 -112.1594 167° South 286 329 15,100 -1,800 Descending Albuquerque Center
11:45AM 34.0869 -112.1375 168° South 273 314 13,100 -1,800 Descending Albuquerque Center
11:46AM 34.0119 -112.1442 184° South 272 313 11,500 -1,500 Descending Albuquerque Center
11:47AM 33.9383 -112.1522 185° South 269 310 10,100 -780 Descending Albuquerque Center
11:48AM 33.8633 -112.1606 185° South 272 313 10,000 -60 Descending Albuquerque Center
11:49AM 33.7897 -112.1467 171° South 268 308 10,000  Level Albuquerque Center
11:51AM 33.7078 -112.1175 164° South 262 302 10,000  Level Albuquerque Center
11:52AM 33.6447 -112.0733 150° Southeast 265 305 10,000  Level Albuquerque Center
11:53AM 33.5839 -112.0311 150° Southeast 255 293 10,000 -300 Level Albuquerque Center
11:54AM 33.5133 -112.0406 186° South 260 299 9,400 -1,020 Descending Albuquerque Center
11:55AM 33.4497 -112.0606 195° South 241 277 7,900 -1,200 Descending Albuquerque Center
11:56AM 33.3894 -112.0803 195° South 227 261 7,000 -780 Descending Albuquerque Center
11:57AM 33.3667 -112.1522 249° West 230 265 6,300 -1,020 Descending Albuquerque Center
11:58AM 33.3781 -112.2267 280° West 244 281 4,900 -1,320 Descending Albuquerque Center
11:59AM 33.4275 -112.1986 25° Northeast 226 260 3,600 -960 Descending Albuquerque Center
12:00PM 33.4283 -112.1317 89° East 199 229 3,000 -780 Descending Albuquerque Center
12:01PM 33.4289 -112.0764 89° East 174 200 2,100 -900 Descending Albuquerque Center
12:02PM 33.4294 -112.0247 89° East 159 183 1,200 -900 Descending Albuquerque Center